AEZ2381 LIMZ-LIEE

Flight info

Callsign AEZ2381
Flight time N/A
Altitude 19000
Route LAGEN1C/03 LAGEN L50 IXITO/N0450F370 DCT UNITA DCT EVROG DCT SUNEV DCT ROMPO DCT UREXE DCT VAVAX DCT LABOM DCT DEXUL DCT KOVAS
Aircraft A319/M-SDE3FGHIRWY/LB1

Departure

Time N/A
Airport Cuneo International Airport (LIMZ)

Arrival

Time 2026-05-08 18:45
Airport Cagliari Elmas Airport (LIEE)
Time Latitude Longitude Altitude Speed Heading
2026-05-08 18:17 41.02245 9.73123 36995 ft 416 kts 206°
2026-05-08 18:17 40.99575 9.71750 36997 ft 415 kts 207°
2026-05-08 18:17 40.94212 9.68989 36995 ft 415 kts 207°
2026-05-08 18:18 40.88838 9.66230 36994 ft 415 kts 207°
2026-05-08 18:18 40.83439 9.63466 37002 ft 414 kts 207°
2026-05-08 18:19 40.78090 9.60729 37002 ft 415 kts 207°
2026-05-08 18:19 40.72704 9.57978 37010 ft 414 kts 207°
2026-05-08 18:20 40.67325 9.55238 37005 ft 414 kts 208°
2026-05-08 18:20 40.61930 9.52488 37010 ft 414 kts 208°
2026-05-08 18:21 40.56482 9.49718 37015 ft 414 kts 208°
2026-05-08 18:21 40.51124 9.46996 37016 ft 413 kts 208°
2026-05-08 18:22 40.45773 9.44283 37018 ft 413 kts 208°
2026-05-08 18:22 40.40407 9.41566 36923 ft 412 kts 208°
2026-05-08 18:23 40.35044 9.38854 37171 ft 411 kts 208°
2026-05-08 18:23 40.32430 9.37541 36638 ft 405 kts 208°
2026-05-08 18:23 40.29811 9.36224 35353 ft 409 kts 208°
2026-05-08 18:24 40.27153 9.34876 33893 ft 418 kts 207°
2026-05-08 18:24 40.24432 9.33500 32539 ft 422 kts 207°
2026-05-08 18:24 40.21726 9.32137 30968 ft 424 kts 207°
2026-05-08 18:24 40.19419 9.30973 29344 ft 430 kts 206°
2026-05-08 18:25 40.16654 9.29581 27101 ft 439 kts 206°
2026-05-08 18:25 40.13864 9.28182 25227 ft 438 kts 206°
2026-05-08 18:25 40.11026 9.26765 24199 ft 432 kts 206°
2026-05-08 18:25 40.08268 9.25396 23817 ft 418 kts 206°
2026-05-08 18:26 40.05589 9.24062 23394 ft 409 kts 207°
2026-05-08 18:26 40.02951 9.22744 22905 ft 406 kts 207°
2026-05-08 18:26 40.00333 9.21434 22398 ft 402 kts 207°
2026-05-08 18:26 39.97756 9.20144 21898 ft 399 kts 206°
2026-05-08 18:27 39.95181 9.18858 21391 ft 395 kts 206°
2026-05-08 18:27 39.93474 9.18007 21047 ft 393 kts 206°
2026-05-08 18:27 39.90111 9.16332 20360 ft 388 kts 206°
2026-05-08 18:27 39.87599 9.15097 19839 ft 385 kts 205°
2026-05-08 18:28 39.85066 9.14010 19300 ft 384 kts 202°
2026-05-08 18:28 39.82483 9.13092 18780 ft 382 kts 200°
2026-05-08 18:28 39.79925 9.12230 18260 ft 379 kts 200°
2026-05-08 18:28 39.77388 9.11374 17739 ft 377 kts 200°
2026-05-08 18:29 39.74851 9.10519 17222 ft 375 kts 199°
2026-05-08 18:29 39.72338 9.09675 16726 ft 373 kts 199°
2026-05-08 18:29 39.69847 9.08842 16218 ft 372 kts 200°
2026-05-08 18:29 39.67334 9.08044 15691 ft 373 kts 195°
2026-05-08 18:30 39.64706 9.07996 15151 ft 383 kts 176°
2026-05-08 18:30 39.62149 9.09027 14636 ft 391 kts 158°
2026-05-08 18:30 39.59817 9.10836 14142 ft 392 kts 151°
2026-05-08 18:30 39.57532 9.12770 13612 ft 387 kts 150°
2026-05-08 18:31 39.55315 9.14650 13099 ft 382 kts 151°
2026-05-08 18:31 39.53100 9.16502 12596 ft 379 kts 151°
2026-05-08 18:31 39.50898 9.18320 12160 ft 375 kts 151°
2026-05-08 18:31 39.48705 9.20122 11637 ft 373 kts 151°
2026-05-08 18:32 39.46540 9.21899 11185 ft 367 kts 151°
2026-05-08 18:32 39.44429 9.23636 10928 ft 352 kts 150°
2026-05-08 18:32 39.42405 9.25302 10760 ft 337 kts 150°
2026-05-08 18:32 39.40463 9.26900 10582 ft 324 kts 151°
2026-05-08 18:33 39.38596 9.28428 10414 ft 313 kts 151°
2026-05-08 18:33 39.36780 9.29909 10280 ft 301 kts 151°
2026-05-08 18:33 39.35045 9.31326 10144 ft 294 kts 152°
2026-05-08 18:33 39.33310 9.32742 9995 ft 290 kts 152°
2026-05-08 18:34 39.31592 9.34142 9669 ft 292 kts 151°
2026-05-08 18:34 39.29870 9.35542 9354 ft 293 kts 151°
2026-05-08 18:34 39.28141 9.36951 8982 ft 293 kts 150°
2026-05-08 18:34 39.26424 9.38351 8639 ft 293 kts 150°
2026-05-08 18:35 39.24725 9.39735 8291 ft 291 kts 150°
2026-05-08 18:35 39.23018 9.41129 7962 ft 290 kts 150°
2026-05-08 18:35 39.21329 9.42505 7643 ft 287 kts 149°
2026-05-08 18:35 39.19640 9.43878 7302 ft 286 kts 150°
2026-05-08 18:36 39.17822 9.44844 6931 ft 280 kts 174°
2026-05-08 18:36 39.15922 9.44712 6587 ft 272 kts 198°
2026-05-08 18:36 39.14156 9.43909 6255 ft 267 kts 203°
2026-05-08 18:36 39.12451 9.43012 5922 ft 265 kts 205°
2026-05-08 18:37 39.10789 9.42011 5596 ft 264 kts 208°
2026-05-08 18:37 39.09183 9.40899 5282 ft 261 kts 211°
2026-05-08 18:37 39.07635 9.39675 4963 ft 259 kts 214°
2026-05-08 18:37 39.06279 9.38179 4627 ft 256 kts 233°
2026-05-08 18:38 39.05441 9.36223 4314 ft 252 kts 253°
2026-05-08 18:38 39.05005 9.34055 4018 ft 249 kts 258°
2026-05-08 18:38 39.04723 9.31871 3687 ft 246 kts 273°
2026-05-08 18:38 39.05126 9.29789 3383 ft 243 kts 294°
2026-05-08 18:39 39.05951 9.27883 3074 ft 240 kts 308°
2026-05-08 18:39 39.07039 9.26318 2847 ft 234 kts 317°
2026-05-08 18:39 39.08220 9.24976 2824 ft 219 kts 320°
2026-05-08 18:39 39.09352 9.23734 2806 ft 211 kts 320°
2026-05-08 18:40 39.10466 9.22487 2786 ft 211 kts 319°
2026-05-08 18:40 39.11553 9.21237 2760 ft 204 kts 319°
2026-05-08 18:40 39.12574 9.20046 2741 ft 192 kts 319°
2026-05-08 18:40 39.13553 9.18903 2742 ft 187 kts 319°
2026-05-08 18:41 39.14488 9.17808 2547 ft 180 kts 319°
2026-05-08 18:41 39.15398 9.16745 2289 ft 171 kts 319°
2026-05-08 18:41 39.16246 9.15758 2075 ft 155 kts 318°
2026-05-08 18:41 39.17006 9.14870 1848 ft 142 kts 319°
2026-05-08 18:42 39.17715 9.14043 1658 ft 136 kts 319°
2026-05-08 18:42 39.18422 9.13224 1492 ft 136 kts 319°
2026-05-08 18:42 39.19127 9.12408 1327 ft 136 kts 319°
2026-05-08 18:42 39.19830 9.11595 1161 ft 136 kts 319°
2026-05-08 18:43 39.20534 9.10780 987 ft 136 kts 318°
2026-05-08 18:43 39.21237 9.09964 806 ft 136 kts 317°
2026-05-08 18:43 39.21936 9.09153 627 ft 136 kts 317°
2026-05-08 18:43 39.22639 9.08338 446 ft 136 kts 317°
2026-05-08 18:44 39.23352 9.07512 265 ft 137 kts 316°
2026-05-08 18:44 39.24051 9.06694 93 ft 137 kts 317°
2026-05-08 18:44 39.24731 9.05908 20 ft 112 kts 318°
2026-05-08 18:44 39.25184 9.05386 20 ft 63 kts 317°
2026-05-08 18:45 39.25442 9.05076 20 ft 47 kts 317°
2026-05-08 18:45 39.25622 9.04876 20 ft 18 kts 329°
2026-05-08 18:45 39.25729 9.04850 20 ft 15 kts 13°
2026-05-08 18:45 39.25777 9.04959 20 ft 15 kts 118°
2026-05-08 18:46 39.25703 9.05061 20 ft 16 kts 138°
2026-05-08 18:46 39.25618 9.05157 20 ft 16 kts 139°
2026-05-08 18:46 39.25530 9.05257 20 ft 17 kts 137°
2026-05-08 18:46 39.25448 9.05362 20 ft 15 kts 127°
2026-05-08 18:47 39.25405 9.05489 20 ft 15 kts 102°
2026-05-08 18:47 39.25379 9.05601 20 ft 8 kts 121°
2026-05-08 18:47 39.25353 9.05654 20 ft 6 kts 105°
2026-05-08 18:47 39.25349 9.05692 20 ft 4 kts 100°
2026-05-08 18:48 39.25338 9.05739 20 ft 6 kts 110°
2026-05-08 18:48 39.25325 9.05779 20 ft 1 kts 112°
2026-05-08 18:48 39.25318 9.05801 20 ft 1 kts 113°
2026-05-08 18:48 39.25317 9.05804 20 ft 0 kts 113°